[[{"header":{"parameterUnit":"m.s-1","parameterCategory":1,"la1":30.2991,"la2":30.254,"lo1":-89.0895,"lo2":-89.0444,"dy":0.0017,"dx":0.0017,"nx":28,"ny":28,"refTime":"2024-03-01T09:00:00:Z","depth":0,"parameterNumber":2,"parameterNumberName":"U-component_of_WINDS"},"data":[0,0,0,0,0,0,0,0,0,0,0,0,0,0,0,0,0,0,0,0,0,0,0,0,0,0,0,0,0,0,0,0,0,0,0,0,0,0,0,0,0,0,0,0,0,0,0,0,0,0,0,0,0,0,0,0,0,0,-4.1416,-4.1415,0,-4.1324,-4.1323,-4.1322,-4.119,-4.1188,-4.1185,-4.1183,-4.1092,-4.1091,-4.1091,0,0,0,0,0,0,0,0,0,0,0,0,0,-4.1477,-4.1477,-4.1416,-4.1415,-4.1414,-4.1324,-4.1323,-4.1322,-4.119,-4.1188,-4.1185,-4.1182,-4.1092,-4.1091,-4.1091,0,0,0,0,0,0,0,0,0,0,0,0,0,-4.1425,-4.1477,-4.1416,-4.1337,-4.1329,-4.1325,-4.1323,-4.1322,-4.1191,-4.1188,-4.1184,-4.1181,-4.1092,-4.1091,-4.1091,-4.1157,0,0,-4.109,-4.1089,0,0,0,0,0,0,0,0,-4.1428,-4.1423,-4.135,-4.1343,-4.1334,-4.1265,-4.1311,-4.1266,-4.1192,-4.1244,-4.1183,-4.1179,-4.1152,-4.1147,-4.1137,-4.1153,-4.1149,-4.1089,-4.1089,-4.1089,-4.1089,0,0,0,0,0,0,0,-4.1432,-4.1426,-4.138,-4.1349,-4.1339,-4.1306,-4.1295,-4.1302,-4.1218,-4.1239,-4.1229,-4.122,-4.1147,-4.1138,-4.1134,-4.1147,-4.1089,-4.1089,-4.1089,-4.1089,-4.121,-4.1213,0,0,0,0,0,0,-4.1447,-4.143,-4.1383,-4.1377,-4.1373,-4.1308,-4.1296,-4.1291,-4.1218,-4.1203,-4.1223,-4.1214,-4.114,-4.1135,-4.113,-4.1201,-4.1089,-4.1089,-4.1088,-4.1206,-4.121,-4.1214,0,0,0,0,0,0,-4.1449,-4.1444,-4.1386,-4.1401,-4.1391,-4.1311,-4.1306,-4.1291,-4.1281,-4.1206,-4.119,-4.1229,-4.1137,-4.1131,-4.115,-4.1196,-4.1088,-4.1088,-4.1202,-4.1208,-4.1212,-4.1345,0,0,0,0,0,0,-4.1451,-4.1445,-4.147,-4.1402,-4.1391,-4.1409,-4.1309,-4.1291,-4.128,-4.1268,-4.1207,-4.1194,-4.1134,-4.1152,-4.115,-4.1194,-4.1088,-4.1198,-4.1205,-4.1211,-4.1336,-4.1354,-4.137,0,0,0,0,0,-4.1454,-4.1512,-4.1472,-4.1467,-4.1419,-4.1412,-4.1405,-4.1335,-4.1285,-4.1308,-4.1259,-4.1196,-4.1191,-4.1155,-4.1152,-4.1196,-4.1195,-4.1203,-4.121,-4.1329,-4.1351,-4.1369,0,0,0,0,0,0,-4.1589,-4.1502,-4.1456,-4.1494,-4.1461,-4.1389,-4.1417,-4.136,-4.1341,-4.1331,-4.1244,-4.1232,-4.1262,-4.1231,-4.1192,-4.1255,-4.1183,-4.1191,-4.1274,-4.1295,-4.1311,-4.1318,-4.1087,0,0,0,0,0,-4.1622,-4.1623,-4.1547,-4.1588,-4.1574,-4.1499,-4.1493,-4.1441,-4.1404,-4.1389,-4.1342,-4.1308,-4.1299,-4.1295,-4.1282,-4.1331,-4.1315,-4.1359,-4.1376,-4.139,-4.1398,-4.1419,-4.1438,-4.124,-4.124,-4.124,0,0,-4.1693,-4.1646,-4.1652,-4.1614,-4.1582,-4.1585,-4.1488,-4.1495,-4.1496,-4.139,-4.1406,-4.137,-4.1326,-4.1361,-4.1373,-4.1335,-4.1449,-4.14,-4.1412,-4.1412,-4.1429,-4.1448,-4.1465,-4.1245,-4.1244,-4.1244,0,0,-4.1823,-4.1787,-4.1817,-4.1786,-4.1739,-4.1688,-4.1695,-4.1632,-4.1603,-4.1617,-4.1537,-4.1537,-4.1523,-4.1495,-4.1479,-4.1595,-4.1535,-4.1593,-4.1681,-4.1703,-4.1718,-4.1732,-4.1773,-4.1788,-4.1601,-4.1602,-4.1602,0,-4.1917,-4.1918,-4.1839,-4.1851,-4.1836,-4.1739,-4.1768,-4.1742,-4.1694,-4.1686,-4.1644,-4.1622,-4.1587,-4.1612,-4.164,-4.163,-4.1635,-4.1601,-4.1722,-4.1735,-4.1746,-4.1784,-4.18,-4.1609,-4.1608,-4.1607,-4.1607,0,-4.2035,-4.2036,-4.2066,-4.202,-4.2008,-4.2029,-4.1953,-4.1951,-4.1899,-4.1853,-4.1867,-4.182,-4.1796,-4.1797,-4.1748,-4.1815,-4.1793,-4.1738,-4.1664,-4.1774,-4.1808,-4.1822,-4.1619,-4.1617,-4.1615,-4.1613,0,0,-4.2249,-4.2158,-4.217,-4.2147,-4.2087,-4.2086,-4.2102,-4.2076,-4.2076,-4.2045,-4.2055,-4.2044,-4.1992,-4.1974,-4.192,-4.1939,-4.2033,-4.1881,-4.1878,-4.1911,-4.2103,-4.2145,-4.2163,-4.1992,-4.1995,-4.1997,-4.2106,0,-4.2368,-4.2388,-4.2317,-4.2356,-4.2356,-4.2262,-4.2275,-4.2239,-4.2196,-4.2189,-4.214,-4.2134,-4.2066,-4.2054,-4.2069,-4.2019,-4.207,-4.201,-4.2001,-4.2001,-4.2015,-4.2181,-4.2226,-4.2332,-4.2119,-4.2121,-4.2123,0,-4.2509,-4.2484,-4.2523,-4.2458,-4.2455,-4.2468,-4.2438,-4.2433,-4.239,-4.2356,-4.2335,-4.2272,-4.2281,-4.221,-4.2221,-4.2181,-4.2173,-4.2148,-4.215,-4.2147,-4.207,-4.2183,-4.2364,-4.238,-4.2143,-4.2142,-4.214,0,-4.2661,-4.2637,-4.2657,-4.264,-4.2565,-4.2576,-4.2546,-4.2499,-4.2487,-4.2461,-4.2453,-4.2428,-4.2415,-4.2397,-4.2328,-4.2283,-4.2348,-4.2271,-4.232,-4.2322,-4.2339,-4.2339,-4.2522,-4.2333,-4.2333,-4.2333,-4.2333,0,-4.2801,-4.2828,-4.2724,-4.2736,-4.2764,-4.2681,-4.271,-4.267,-4.2629,-4.2631,-4.2548,-4.2552,-4.2461,-4.2454,-4.24,-4.2417,-4.2412,-4.2385,-4.237,-4.2393,-4.2396,-4.2387,-4.2378,-4.2337,-4.2336,-4.2335,-4.2335,0,-4.2976,-4.2908,-4.2923,-4.285,-4.2832,-4.2855,-4.2792,-4.28,-4.275,-4.2754,-4.275,-4.2672,-4.266,-4.2589,-4.2561,-4.2524,-4.2561,-4.2531,-4.2576,-4.2566,-4.2619,-4.2615,-4.2802,-4.2822,-4.2622,-4.2624,-4.2626,0,-4.3071,-4.3089,-4.3017,-4.3013,-4.2985,-4.2979,-4.2966,-4.2885,-4.2875,-4.2826,-4.284,-4.282,-4.2801,-4.2785,-4.2726,-4.2703,-4.2673,-4.274,-4.2669,-4.269,-4.2673,-4.2673,-4.2674,-4.2756,-4.2758,-4.276,-4.2762,0,-4.3245,-4.3209,-4.3194,-4.3167,-4.3154,-4.3129,-4.3098,-4.3099,-4.3009,-4.3002,-4.2988,-4.2972,-4.2942,-4.2924,-4.289,-4.2858,-4.2795,-4.2784,-4.2794,-4.2818,-4.2843,-4.2829,-4.2617,-4.2781,-4.2779,-4.2778,-4.2777,-4.2776,-4.3382,-4.3394,-4.3345,-4.333,-4.3298,-4.3271,-4.3275,-4.3224,-4.3211,-4.318,-4.3132,-4.3124,-4.3078,-4.3026,-4.2999,-4.2991,-4.2955,-4.297,-4.2973,-4.2978,-4.299,-4.2843,-4.2984,-4.2984,-4.2983,-4.2983,-4.2982,0,-4.3552,-4.3515,-4.3502,-4.3462,-4.345,-4.339,-4.3353,-4.3347,-4.3341,-4.3303,-4.3285,-4.3268,-4.3249,-4.3187,-4.3161,-4.3167,-4.3137,-4.3163,-4.3162,-4.3155,-4.3024,-4.3017,-4.3187,-4.3187,-4.3187,-4.3187,-4.3187,-4.3187,-4.3639,-4.3655,-4.3613,-4.3612,-4.3574,-4.3566,-4.355,-4.3524,-4.3492,-4.3477,-4.3461,-4.342,-4.3371,-4.3341,-4.3321,-4.3302,-4.3297,-4.3333,-4.3305,-4.3184,-4.3165,-4.3146,-4.3139,-4.3332,-4.3332,-4.3437,-4.3438,-4.3439]},{"header":{"parameterUnit":"m.s-1","parameterCategory":1,"la1":30.2991,"la2":30.254,"lo1":-89.0895,"lo2":-89.0444,"dy":0.0017,"dx":0.0017,"nx":28,"ny":28,"refTime":"2024-03-01T09:00:00:Z","depth":0,"parameterNumber":3,"parameterNumberName":"V-component_of_WINDS"},"data":[0,0,0,0,0,0,0,0,0,0,0,0,0,0,0,0,0,0,0,0,0,0,0,0,0,0,0,0,0,0,0,0,0,0,0,0,0,0,0,0,0,0,0,0,0,0,0,0,0,0,0,0,0,0,0,0,0,0,-3.4447,-3.4449,0,-3.4546,-3.4547,-3.4548,-3.4467,-3.4463,-3.446,-3.4457,-3.4559,-3.4564,-3.457,0,0,0,0,0,0,0,0,0,0,0,0,0,-3.419,-3.4196,-3.4447,-3.4449,-3.445,-3.4545,-3.4547,-3.4548,-3.4467,-3.4463,-3.4459,-3.4455,-3.4557,-3.4564,-3.4571,0,0,0,0,0,0,0,0,0,0,0,0,0,-3.4297,-3.4197,-3.4447,-3.4421,-3.442,-3.4545,-3.4547,-3.4548,-3.4468,-3.4463,-3.4458,-3.4453,-3.4555,-3.4563,-3.4572,-3.4729,0,0,-3.4599,-3.4603,0,0,0,0,0,0,0,0,-3.4291,-3.4306,-3.4424,-3.4423,-3.4422,-3.4488,-3.4493,-3.4609,-3.4469,-3.445,-3.4456,-3.4451,-3.454,-3.4549,-3.4579,-3.4734,-3.4738,-3.46,-3.4605,-3.4609,-3.4611,0,0,0,0,0,0,0,-3.4284,-3.4302,-3.4486,-3.4425,-3.4424,-3.4404,-3.4414,-3.4515,-3.4522,-3.4451,-3.4445,-3.4458,-3.4538,-3.4571,-3.4581,-3.4739,-3.4599,-3.4607,-3.4613,-3.4616,-3.5028,-3.5033,0,0,0,0,0,0,-3.4279,-3.4296,-3.4483,-3.4489,-3.4342,-3.4413,-3.4424,-3.4472,-3.4521,-3.4523,-3.4462,-3.4454,-3.4558,-3.4571,-3.4584,-3.4772,-3.4609,-3.4617,-3.4622,-3.5022,-3.5029,-3.5035,0,0,0,0,0,0,-3.4274,-3.4296,-3.4479,-3.4391,-3.4413,-3.4423,-3.4478,-3.4477,-3.4509,-3.4529,-3.453,-3.4494,-3.4555,-3.4572,-3.4693,-3.4774,-3.4621,-3.4629,-3.5015,-3.5024,-3.5032,-3.5148,0,0,0,0,0,0,-3.4267,-3.4295,-3.4355,-3.4393,-3.4418,-3.4587,-3.4483,-3.4483,-3.4525,-3.4515,-3.456,-3.4562,-3.4552,-3.4681,-3.4702,-3.4783,-3.4636,-3.5008,-3.5019,-3.5029,-3.5137,-3.5159,-3.5178,0,0,0,0,0,-3.4258,-3.4384,-3.4358,-3.4381,-3.4493,-3.4592,-3.4606,-3.4591,-3.4532,-3.4592,-3.4604,-3.4561,-3.4761,-3.4694,-3.4717,-3.4803,-3.5003,-3.5016,-3.5028,-3.5128,-3.5155,-3.5178,0,0,0,0,0,0,-3.4355,-3.4388,-3.436,-3.4502,-3.4545,-3.4578,-3.4653,-3.462,-3.4681,-3.4669,-3.4648,-3.4659,-3.4787,-3.4806,-3.4731,-3.4957,-3.4873,-3.4891,-3.494,-3.4966,-3.4986,-3.498,-3.4643,0,0,0,0,0,-3.4393,-3.447,-3.4495,-3.4618,-3.4641,-3.4644,-3.4686,-3.4671,-3.4714,-3.4732,-3.4753,-3.4797,-3.487,-3.4919,-3.4987,-3.5138,-3.5147,-3.5208,-3.5229,-3.5246,-3.5263,-3.5344,-3.5372,-3.5076,-3.5076,-3.5076,0,0,-3.4473,-3.45,-3.455,-3.4638,-3.4669,-3.475,-3.4659,-3.4749,-3.4809,-3.4745,-3.4862,-3.4879,-3.4927,-3.5064,-3.5126,-3.5084,-3.5346,-3.5262,-3.5275,-3.5283,-3.536,-3.5388,-3.5413,-3.5085,-3.5083,-3.5082,0,0,-3.4659,-3.4687,-3.4793,-3.4826,-3.4874,-3.4874,-3.49,-3.4938,-3.4947,-3.5063,-3.5017,-3.5088,-3.5214,-3.525,-3.5285,-3.5483,-3.5446,-3.5506,-3.5615,-3.5695,-3.5718,-3.5739,-3.5811,-3.5837,-3.5522,-3.5522,-3.5522,0,-3.4752,-3.4872,-3.4852,-3.4945,-3.4985,-3.493,-3.5038,-3.507,-3.5138,-3.5167,-3.5119,-3.5276,-3.5304,-3.5449,-3.5498,-3.5527,-3.5556,-3.5502,-3.5716,-3.5737,-3.5756,-3.5824,-3.5851,-3.5529,-3.5528,-3.5528,-3.5527,0,-3.4984,-3.5068,-3.5148,-3.5214,-3.5263,-3.5363,-3.5358,-3.541,-3.539,-3.5396,-3.5515,-3.5546,-3.562,-3.5653,-3.5634,-3.5796,-3.5769,-3.5719,-3.5634,-3.5792,-3.5856,-3.5882,-3.5539,-3.5537,-3.5535,-3.5533,0,0,-3.5237,-3.529,-3.532,-3.535,-3.5398,-3.5462,-3.5559,-3.563,-3.5676,-3.5724,-3.5805,-3.5912,-3.5866,-3.5906,-3.5891,-3.5961,-3.6117,-3.5903,-3.5903,-3.5943,-3.6298,-3.6337,-3.6367,-3.6092,-3.6097,-3.6101,-3.6295,0,-3.5427,-3.5595,-3.5579,-3.574,-3.5817,-3.5765,-3.585,-3.5889,-3.5897,-3.5963,-3.5971,-3.6048,-3.5981,-3.6005,-3.6072,-3.6084,-3.6189,-3.607,-3.6169,-3.6172,-3.616,-3.6401,-3.6442,-3.6623,-3.6319,-3.6324,-3.6327,0,-3.5671,-3.5727,-3.5895,-3.5931,-3.5963,-3.604,-3.6104,-3.6168,-3.621,-3.6211,-3.6255,-3.6227,-3.6325,-3.6237,-3.6371,-3.6291,-3.633,-3.6342,-3.6348,-3.6359,-3.6261,-3.6419,-3.6681,-3.6709,-3.6366,-3.6363,-3.636,0,-3.584,-3.5958,-3.6074,-3.61,-3.6145,-3.62,-3.6221,-3.6259,-3.6302,-3.6358,-3.6386,-3.6453,-3.649,-3.6542,-3.6533,-3.647,-3.6671,-3.6582,-3.6676,-3.6676,-3.6722,-3.672,-3.6996,-3.6745,-3.6744,-3.6744,-3.6743,0,-3.6055,-3.616,-3.615,-3.6222,-3.6338,-3.6318,-3.6434,-3.6448,-3.6482,-3.6556,-3.6514,-3.6584,-3.6568,-3.6637,-3.6631,-3.6744,-3.676,-3.6764,-3.6762,-3.6769,-3.6769,-3.6796,-3.6784,-3.6751,-3.6749,-3.6748,-3.6747,0,-3.6264,-3.6262,-3.6385,-3.6417,-3.6427,-3.6512,-3.6539,-3.6606,-3.661,-3.6703,-3.6724,-3.673,-3.681,-3.6806,-3.6896,-3.6891,-3.7031,-3.7013,-3.7017,-3.7014,-3.7109,-3.7101,-3.7413,-3.7454,-3.7175,-3.7177,-3.7179,0,-3.6402,-3.6482,-3.6522,-3.6568,-3.6593,-3.6668,-3.6712,-3.6695,-3.6743,-3.6797,-3.6859,-3.6934,-3.6994,-3.7123,-3.7136,-3.7205,-3.7189,-3.7294,-3.7199,-3.7204,-3.7193,-3.7189,-3.7197,-3.7313,-3.7316,-3.7319,-3.7321,0,-3.6648,-3.6643,-3.6708,-3.6773,-3.6827,-3.6878,-3.6924,-3.6964,-3.6952,-3.7008,-3.7088,-3.7135,-3.7226,-3.7302,-3.7367,-3.7389,-3.7354,-3.735,-3.7376,-3.7385,-3.7385,-3.7388,-3.707,-3.7344,-3.7341,-3.734,-3.7339,-3.7338,-3.6827,-3.6896,-3.6935,-3.7009,-3.7042,-3.7085,-3.7151,-3.7162,-3.7229,-3.7302,-3.7287,-3.7378,-3.7418,-3.7502,-3.753,-3.7601,-3.7564,-3.76,-3.761,-3.762,-3.7632,-3.7372,-3.7613,-3.7612,-3.7611,-3.7611,-3.761,0,-3.7072,-3.7094,-3.7163,-3.7228,-3.7287,-3.7246,-3.7295,-3.7347,-3.7427,-3.7467,-3.7527,-3.7619,-3.7692,-3.771,-3.7781,-3.7834,-3.782,-3.7853,-3.785,-3.7856,-3.766,-3.7632,-3.7864,-3.7864,-3.7864,-3.7864,-3.7864,-3.7863,-3.7207,-3.7321,-3.732,-3.745,-3.7471,-3.7559,-3.7591,-3.7631,-3.7663,-3.7768,-3.7829,-3.7839,-3.7871,-3.7943,-3.8008,-3.8011,-3.804,-3.8081,-3.8078,-3.7895,-3.787,-3.7846,-3.7819,-3.8086,-3.8087,-3.8268,-3.827,-3.8271]}]]